Location: Eexterzandvoort
(53.0303°N, 6.7884°E)
Time: 10:30:50
(UTC+00:00)

Sich 1 - Pass Details

Date: 19 May 2025
Orbit: 574 x 603 km, 82.5° (Epoch: 23 June)

Event Time Altitude Azimuth Distance (km) Brightness Sun altitude
Rises 22:30:20 0° 350° (N) 2,842 8.3 -15.9°
Reaches altitude 10° 22:32:34 10° 352° (N) 1,931 7.0 -16.0°
Maximum altitude 22:36:49 74° 77° (ENE) 616 3.0 -16.1°
Enters shadow 22:38:46 31° 157° (SSE) 1,036 3.6 -16.2°
